[[{"header":{"parameterUnit":"m.s-1","parameterCategory":1,"la1":30.2991,"la2":30.254,"lo1":-89.0895,"lo2":-89.0444,"dy":0.0017,"dx":0.0017,"nx":28,"ny":28,"refTime":"2025-09-19T03:00:00:Z","depth":0,"parameterNumber":2,"parameterNumberName":"U-component_of_WINDS"},"data":[0,0,0,0,0,0,0,0,0,0,0,0,0,0,0,0,0,0,0,0,0,0,0,0,0,0,0,0,0,0,0,0,0,0,0,0,0,0,0,0,0,0,0,0,0,0,0,0,0,0,0,0,0,0,0,0,0,0,0.663,0.6631,0,0.6759,0.676,0.6762,0.679,0.6789,0.6788,0.6787,0.6923,0.6928,0.6932,0,0,0,0,0,0,0,0,0,0,0,0,0,0.6411,0.6415,0.663,0.6631,0.6633,0.6759,0.676,0.6762,0.679,0.6789,0.6788,0.6787,0.6922,0.6927,0.6933,0,0,0,0,0,0,0,0,0,0,0,0,0,0.6519,0.6416,0.6629,0.6662,0.6666,0.6758,0.676,0.6763,0.679,0.6789,0.6787,0.6786,0.692,0.6927,0.6933,0.7004,0,0,0.6954,0.6957,0,0,0,0,0,0,0,0,0.6513,0.6527,0.6655,0.666,0.6665,0.6757,0.6733,0.6844,0.6791,0.6743,0.6787,0.6785,0.6869,0.688,0.6908,0.701,0.7016,0.6955,0.6959,0.6962,0.6964,0,0,0,0,0,0,0,0.6506,0.6522,0.6681,0.6657,0.6663,0.6671,0.6685,0.6754,0.6813,0.6747,0.675,0.6764,0.6872,0.6901,0.6911,0.7018,0.6955,0.6961,0.6965,0.6967,0.7185,0.7186,0,0,0,0,0,0,0.6492,0.6516,0.6677,0.6685,0.6584,0.6676,0.6692,0.6729,0.6812,0.6823,0.6765,0.6765,0.689,0.6903,0.6916,0.7004,0.6962,0.6968,0.6972,0.7183,0.7185,0.7187,0,0,0,0,0,0,0.6487,0.6506,0.6672,0.6601,0.6623,0.6681,0.6723,0.6732,0.6761,0.6826,0.6837,0.6784,0.689,0.6907,0.6981,0.7009,0.6971,0.6977,0.7181,0.7184,0.7186,0.718,0,0,0,0,0,0,0.6481,0.6504,0.6531,0.6601,0.6626,0.6734,0.6724,0.6736,0.6773,0.6773,0.6847,0.6857,0.689,0.6971,0.6988,0.7018,0.6983,0.7179,0.7182,0.7185,0.7178,0.7182,0.7185,0,0,0,0,0,0.6473,0.6525,0.6532,0.6551,0.666,0.6735,0.675,0.6785,0.6775,0.6802,0.6844,0.6855,0.7003,0.6979,0.6998,0.703,0.7177,0.7181,0.7185,0.7176,0.7181,0.7185,0,0,0,0,0,0,0.6457,0.6535,0.6543,0.6619,0.667,0.674,0.6776,0.6789,0.6845,0.6843,0.6886,0.6902,0.6975,0.701,0.6981,0.7102,0.709,0.7098,0.7077,0.7082,0.7085,0.7076,0.6988,0,0,0,0,0,0.6462,0.6516,0.6581,0.6642,0.6666,0.6716,0.6751,0.6773,0.6828,0.685,0.6897,0.6951,0.701,0.7048,0.7105,0.7183,0.72,0.7214,0.7218,0.7221,0.7227,0.7271,0.7279,0.72,0.7199,0.7199,0,0,0.6474,0.6523,0.6554,0.664,0.6682,0.6737,0.6735,0.6793,0.6835,0.686,0.6933,0.6969,0.7032,0.7109,0.7145,0.714,0.7253,0.7226,0.7227,0.7233,0.7276,0.7283,0.729,0.7202,0.7202,0.7201,0,0,0.6524,0.6566,0.6621,0.6663,0.6726,0.6759,0.6772,0.684,0.6864,0.6938,0.6958,0.7008,0.7108,0.7153,0.7188,0.7254,0.7267,0.7271,0.7291,0.7333,0.7339,0.7345,0.7369,0.7377,0.7278,0.7278,0.7278,0,0.6531,0.6613,0.6648,0.6705,0.6743,0.6766,0.6823,0.6862,0.6942,0.6967,0.6961,0.7086,0.7131,0.7218,0.7234,0.7262,0.7279,0.7263,0.7335,0.7342,0.7347,0.737,0.7379,0.7278,0.7278,0.7278,0.7278,0,0.6619,0.6676,0.6713,0.6788,0.6829,0.6886,0.693,0.6968,0.6987,0.7021,0.7096,0.7149,0.7218,0.724,0.726,0.733,0.7326,0.7327,0.7315,0.7355,0.7377,0.7386,0.7278,0.7278,0.7278,0.7278,0,0,0.6663,0.6755,0.6768,0.6802,0.6873,0.6919,0.6977,0.7043,0.7075,0.7129,0.7179,0.7263,0.7264,0.7304,0.7329,0.7366,0.7414,0.7363,0.7365,0.737,0.7495,0.7494,0.7503,0.7423,0.7425,0.7426,0.749,0,0.6721,0.6824,0.6857,0.6944,0.6997,0.702,0.7071,0.712,0.7153,0.7204,0.7241,0.73,0.7297,0.7322,0.7359,0.74,0.744,0.7396,0.7471,0.7473,0.7454,0.7515,0.7514,0.7572,0.7499,0.75,0.7502,0,0.6804,0.6857,0.6948,0.7013,0.7036,0.7081,0.7144,0.7192,0.7249,0.7271,0.7315,0.7336,0.7399,0.7383,0.747,0.7439,0.7472,0.7497,0.75,0.7509,0.749,0.7526,0.7591,0.76,0.7516,0.7514,0.7513,0,0.6826,0.6922,0.6989,0.7017,0.7094,0.7125,0.7158,0.7214,0.7251,0.7306,0.7331,0.7393,0.7427,0.7476,0.7514,0.7498,0.7597,0.7585,0.7618,0.7617,0.7638,0.7636,0.771,0.7658,0.7658,0.7658,0.7658,0,0.6889,0.6944,0.7,0.7041,0.7104,0.7141,0.7202,0.7237,0.7286,0.7336,0.7359,0.7405,0.7452,0.7505,0.7535,0.7602,0.7618,0.7638,0.7645,0.7636,0.7633,0.7658,0.7655,0.766,0.766,0.7659,0.7659,0,0.6925,0.6965,0.7039,0.7105,0.7123,0.7166,0.7223,0.7265,0.7298,0.736,0.7377,0.743,0.7492,0.7535,0.7616,0.7636,0.7709,0.7716,0.7689,0.7693,0.7723,0.772,0.7816,0.783,0.7769,0.7769,0.777,0,0.6962,0.7005,0.7075,0.7109,0.7142,0.7196,0.7234,0.7273,0.7311,0.7379,0.7412,0.7476,0.7529,0.7629,0.7675,0.7737,0.7746,0.7775,0.7755,0.7744,0.7746,0.7743,0.7748,0.7778,0.7778,0.7779,0.7779,0,0.7023,0.7041,0.7094,0.7154,0.7198,0.7247,0.7297,0.7323,0.7371,0.7413,0.7477,0.7518,0.7599,0.7663,0.7729,0.7764,0.778,0.7785,0.7796,0.7787,0.7769,0.7779,0.7698,0.7783,0.7782,0.7782,0.7782,0.7782,0.7062,0.7101,0.7156,0.7214,0.7255,0.73,0.7342,0.738,0.7434,0.7502,0.7522,0.7588,0.7644,0.7734,0.7771,0.7824,0.7821,0.7837,0.7841,0.7844,0.7844,0.7761,0.7836,0.7836,0.7836,0.7836,0.7836,0,0.7124,0.7161,0.7214,0.7282,0.7327,0.7336,0.7392,0.743,0.7487,0.7538,0.7589,0.7662,0.7723,0.7774,0.7838,0.787,0.7879,0.7886,0.7884,0.7892,0.7843,0.7827,0.7878,0.7878,0.7878,0.7878,0.7878,0.7878,0.7162,0.7228,0.7252,0.7339,0.7376,0.744,0.747,0.7513,0.7553,0.7633,0.7683,0.7716,0.7767,0.7834,0.7891,0.7904,0.7927,0.7932,0.7947,0.79,0.7896,0.7891,0.7876,0.7936,0.7936,0.7991,0.7992,0.7992]},{"header":{"parameterUnit":"m.s-1","parameterCategory":1,"la1":30.2991,"la2":30.254,"lo1":-89.0895,"lo2":-89.0444,"dy":0.0017,"dx":0.0017,"nx":28,"ny":28,"refTime":"2025-09-19T03:00:00:Z","depth":0,"parameterNumber":3,"parameterNumberName":"V-component_of_WINDS"},"data":[0,0,0,0,0,0,0,0,0,0,0,0,0,0,0,0,0,0,0,0,0,0,0,0,0,0,0,0,0,0,0,0,0,0,0,0,0,0,0,0,0,0,0,0,0,0,0,0,0,0,0,0,0,0,0,0,0,0,0.7879,0.7879,0,0.7876,0.7876,0.7876,0.7849,0.7849,0.7848,0.7847,0.7843,0.7843,0.7844,0,0,0,0,0,0,0,0,0,0,0,0,0,0.7858,0.7858,0.7879,0.7879,0.7879,0.7876,0.7876,0.7876,0.7849,0.7849,0.7848,0.7847,0.7843,0.7843,0.7844,0,0,0,0,0,0,0,0,0,0,0,0,0,0.7862,0.7859,0.7879,0.7865,0.7864,0.7876,0.7876,0.7876,0.785,0.7849,0.7848,0.7847,0.7842,0.7843,0.7844,0.7869,0,0,0.7846,0.7847,0,0,0,0,0,0,0,0,0.7862,0.7863,0.7867,0.7866,0.7865,0.7862,0.7867,0.7874,0.785,0.7855,0.7847,0.7846,0.785,0.785,0.7852,0.7868,0.7868,0.7846,0.7847,0.7847,0.7847,0,0,0,0,0,0,0,0.7862,0.7863,0.7878,0.7868,0.7866,0.7858,0.7858,0.7868,0.7858,0.7855,0.7853,0.7853,0.7849,0.7851,0.7851,0.7868,0.7846,0.7847,0.7847,0.7848,0.7901,0.7902,0,0,0,0,0,0,0.7864,0.7863,0.7878,0.7878,0.7861,0.7859,0.7859,0.7864,0.7858,0.7856,0.7854,0.7851,0.785,0.785,0.7851,0.7877,0.7847,0.7848,0.7848,0.79,0.7901,0.7902,0,0,0,0,0,0,0.7863,0.7865,0.7878,0.787,0.7871,0.7861,0.7867,0.7865,0.7866,0.7857,0.7855,0.7858,0.7849,0.785,0.7864,0.7876,0.7848,0.7849,0.7899,0.79,0.7901,0.793,0,0,0,0,0,0,0.7863,0.7865,0.7876,0.787,0.7871,0.7892,0.7868,0.7865,0.7868,0.7865,0.786,0.7859,0.7849,0.7863,0.7864,0.7877,0.7849,0.7897,0.7899,0.7901,0.7928,0.7932,0.7936,0,0,0,0,0,0.7862,0.7884,0.7876,0.7878,0.7884,0.7893,0.7893,0.7882,0.7869,0.7878,0.7872,0.7859,0.7875,0.7864,0.7866,0.7879,0.7897,0.7899,0.7901,0.7926,0.7931,0.7936,0,0,0,0,0,0,0.7891,0.7883,0.7875,0.7896,0.7895,0.7888,0.79,0.7889,0.7891,0.7888,0.7874,0.7873,0.7888,0.7885,0.7873,0.79,0.7883,0.7886,0.7902,0.7907,0.7911,0.791,0.785,0,0,0,0,0,0.79,0.7909,0.7901,0.792,0.792,0.791,0.7914,0.7905,0.7903,0.7903,0.7898,0.7896,0.79,0.7904,0.7907,0.7927,0.7924,0.7937,0.7941,0.7944,0.7946,0.7953,0.7958,0.7909,0.7909,0.7909,0,0,0.7919,0.7915,0.7922,0.7926,0.7924,0.7932,0.791,0.792,0.7925,0.7904,0.7916,0.7912,0.7909,0.7925,0.7932,0.7923,0.7959,0.7947,0.795,0.795,0.7956,0.796,0.7965,0.7911,0.791,0.791,0,0,0.7955,0.7955,0.7969,0.7968,0.7966,0.7958,0.7962,0.7956,0.7953,0.7965,0.7948,0.7953,0.7962,0.796,0.796,0.7993,0.798,0.7995,0.8015,0.8022,0.8026,0.8029,0.8039,0.8042,0.7997,0.7997,0.7997,0,0.7978,0.799,0.7978,0.7988,0.7989,0.7971,0.7984,0.7983,0.7982,0.7982,0.7973,0.7981,0.7978,0.7992,0.8,0.8001,0.8003,0.7995,0.8027,0.803,0.8033,0.8041,0.8045,0.7999,0.7998,0.7998,0.7998,0,0.8016,0.8025,0.8036,0.8035,0.8038,0.8049,0.8038,0.8042,0.8032,0.8025,0.8036,0.8031,0.8032,0.8035,0.8027,0.8047,0.8041,0.803,0.8012,0.8039,0.8047,0.805,0.8001,0.8,0.8,0.8,0,0,0.8071,0.8062,0.8067,0.8065,0.806,0.8065,0.8075,0.8076,0.8078,0.8078,0.8084,0.8091,0.8079,0.8079,0.807,0.8076,0.8099,0.8063,0.8063,0.8068,0.8118,0.8125,0.8129,0.8091,0.8092,0.8092,0.8117,0,0.8104,0.8121,0.8109,0.8127,0.8133,0.8114,0.8122,0.8119,0.8113,0.8116,0.8109,0.8112,0.8098,0.8097,0.8103,0.8095,0.8109,0.8093,0.8094,0.8094,0.8094,0.8134,0.8142,0.8166,0.812,0.8121,0.8121,0,0.8145,0.8146,0.8164,0.8155,0.8157,0.8165,0.8163,0.8167,0.8162,0.8157,0.8156,0.8144,0.8151,0.8135,0.8142,0.8132,0.8132,0.8128,0.8128,0.8127,0.8108,0.8131,0.8174,0.8177,0.8126,0.8126,0.8126,0,0.818,0.8185,0.8196,0.8195,0.8186,0.8191,0.8188,0.8183,0.8183,0.8182,0.8181,0.8181,0.818,0.8179,0.8167,0.8157,0.8175,0.8159,0.8169,0.8169,0.8173,0.8172,0.8214,0.8176,0.8176,0.8176,0.8176,0,0.8216,0.8227,0.8211,0.8217,0.8228,0.8214,0.8225,0.822,0.8215,0.8218,0.8203,0.8207,0.8191,0.8193,0.8183,0.8189,0.819,0.8184,0.8181,0.8184,0.8184,0.8182,0.818,0.8177,0.8177,0.8176,0.8176,0,0.8256,0.8246,0.8256,0.8246,0.8244,0.8252,0.8244,0.8248,0.824,0.8245,0.8245,0.8233,0.8233,0.8221,0.822,0.8213,0.8222,0.8218,0.8224,0.8221,0.8232,0.823,0.8272,0.8276,0.8238,0.8238,0.8238,0,0.8279,0.8287,0.8278,0.8279,0.8276,0.8279,0.8279,0.8266,0.8266,0.826,0.8265,0.8264,0.8263,0.8265,0.8254,0.8252,0.8246,0.8261,0.8245,0.8248,0.8243,0.8242,0.8241,0.8263,0.8264,0.8264,0.8265,0,0.832,0.8314,0.8315,0.8313,0.8314,0.8312,0.8309,0.8311,0.8296,0.8297,0.8297,0.8296,0.8294,0.8293,0.8289,0.8283,0.8271,0.827,0.8271,0.8274,0.8276,0.8273,0.823,0.8268,0.8268,0.8268,0.8267,0.8267,0.835,0.8355,0.8349,0.835,0.8346,0.8343,0.8346,0.8338,0.8339,0.8336,0.8328,0.8329,0.8322,0.8315,0.8311,0.831,0.8303,0.8306,0.8307,0.8307,0.8308,0.8278,0.831,0.831,0.831,0.8309,0.8309,0,0.8387,0.8382,0.8383,0.8379,0.8379,0.8368,0.8364,0.8365,0.8366,0.8361,0.8359,0.8359,0.8357,0.8346,0.8343,0.8344,0.8338,0.8344,0.8343,0.8341,0.8316,0.8314,0.8349,0.8349,0.8349,0.8349,0.8349,0.8349,0.8407,0.8414,0.8407,0.8411,0.8406,0.8407,0.8405,0.8402,0.8397,0.8397,0.8395,0.8389,0.8381,0.8376,0.8374,0.837,0.8369,0.8376,0.837,0.8347,0.8343,0.8339,0.8337,0.8376,0.8376,0.8395,0.8395,0.8395]}]]